PSLV R/B, 43287

Orbit data source: Space-Track

PSLV R/B, 43287 is space debris in HEO originally from a launch on Wed, 11 Apr 2018 UTC launched from the Sirharikota (SRI). Debris objects in space refer to the collection of defunct objects orbiting the Earth. Examples of debris include non-operational satellites, rocket bodies, and fragments generated from explosions, collisions, or faulty payload assembly.

Loading next visibility...
Identifier
43287, 2018-035B
Orbit
HEO
Country
Flag of ININ / IND
Related business
Manufacturer
VSSC/LPSC
Mission
Spacecraft
Bus & Motor
PS-4, Unknown motor
Mass
920 kg wet, 920 kg dry
Launch date (UTC)
2018-04-11 (8 years ago)
Launch vehicle
Unknown
Launch site
Sirharikota (SRI)
Object type
Payload
Rocket body
Debris
Shape & HBR
Cyl + Cyl + 2 Nozzle, 1.6 m
Radar Cross Section
3.727 m², Large (>1 m²)

Expand to show TLE details & history
Last TLE update: 23 hours ago

TLE from 23 hours ago
0 PSLV R/B
1 43287U 18035B   25298.02079858  .00013223  00000-0  11980-2 0  9998
2 43287  19.0698 306.6927 5649099 140.6468 278.3634  4.61666348115287
Epoch: 2025-10-25T00:29Z
TLE epoch observation values (Epoch: 2025-10-25T00:29:56.997Z)
Latitude
-0.00007°
Longitude
-94.46668°
Altitude
12,028.355 km
Speed
4.141 km/s
True Right ascension
20h 26m 42s
True Declination
0° 00' 00"
Sunlit
Object was in daylight at epoch
Visualization orbit readout
Latitude
Unknown
Longitude
Unknown
Altitude
Unknown
Speed
Unknown
Apparent Right ascension
Unknown
Apparent Declination
Unknown
Sunlit
N/A
Visualization observer readout
Local Sidereal Time
18:20:22
Azimuth
Unknown
Elevation
Unknown
Doppler factor
Unknown
Orbital elements
Apogee altitude
17,470.441 km
Perigee altitude
252.456 km
Semi-major axis
15,239.586 km
Eccentricity
0.56491
Inclination
19.0698°
RAAN
306.6927°
Arg. of periapsis
140.6468°
True anomaly
219.35567°
Mean anomaly
278.3634°
Eccentric anomaly
248.2919°
Mean motion
1.15367 °/min
Orbital period
312.05 mins
BSTAR
0.001198
Loading maneuver chart data...
Computing Atmospheric mass density...
Loading historical data...
Loading historical data...
Loading historical data...
Loading historical data...
Loading historical data...
Loading historical data...
Loading historical data...
Other satellites on launch #35 in the year 2018 (2018-04-11 UTC)

Documentation

Showing up to 5 results
|